{"data":{"norad_id":63057,"intl_designator":"2025-035F","name":"STARLINK-11406 [DTC]","alt_names":[],"object_type":"PAYLOAD","status":"ACTIVE","operator":null,"country":"US","launch_date":"2025-02-21","launch_site_code":"AFETR","launch_vehicle":null,"mission":null,"orbit_class":"UNKNOWN","rcs_meters":null,"size_class":null,"mass_kg":null,"dimensions":null,"purposes":["comms"],"wikipedia_slug":null,"has_3d_model":false,"image_url":null,"decayed_at":null,"tle_current":{"epoch":"2026-05-25T01:35:17.190816Z","epoch_age_seconds":73355,"freshness":"FRESH","line1":"1 63057U 25035F   26145.06617119  .00174357  00000+0  13351-2 0  9996","line2":"2 63057  42.9995 274.9017 0001718  61.3559 298.7481 15.70820733 73114","mean_motion":15.70820733,"eccentricity":0.0001718,"inclination_deg":42.9995,"raan_deg":274.9017,"arg_perigee_deg":61.3559,"mean_anomaly_deg":298.7481,"bstar":0.0013351,"rev_number":7311,"period_min":91.671822872483,"perigee_km":355.39311157424,"apogee_km":357.70715007239,"semimajor_km":6734.6871308233,"source":"CELESTRAK","updated_at":"2026-05-25T13:38:19.871928Z"}}}